Datum;Richtung;Anzahl Messungen;Anzahl Fahrzeuge;Durchschnittsgeschwindigkeit;Hoechstgeschwindigkeit
26/09/2023 00:00;1;1;1;22.00;22.00
26/09/2023 01:00;1;3;3;24.67;28.00
26/09/2023 01:30;1;1;1;28.00;28.00
26/09/2023 02:00;1;2;2;28.50;32.00
26/09/2023 03:00;1;3;3;34.00;43.00
26/09/2023 03:30;1;3;3;26.67;29.00
26/09/2023 04:30;1;3;3;21.33;23.00
26/09/2023 05:00;1;8;8;27.50;39.00
26/09/2023 05:30;1;21;21;26.90;51.00
26/09/2023 06:00;1;20;20;26.35;41.00
26/09/2023 06:30;1;26;26;26.81;43.00
26/09/2023 07:00;1;38;38;24.03;33.00
26/09/2023 07:30;1;40;40;24.20;49.00
26/09/2023 08:00;1;46;46;24.59;34.00
26/09/2023 08:30;1;36;36;24.89;41.00
26/09/2023 09:00;1;21;21;26.48;44.00
26/09/2023 09:30;1;20;20;26.90;41.00
26/09/2023 10:00;1;18;18;23.39;37.00
26/09/2023 10:30;1;25;25;25.32;46.00
26/09/2023 11:00;1;17;17;28.29;41.00
26/09/2023 11:30;1;23;23;26.26;38.00
26/09/2023 12:00;1;17;17;25.53;35.00
26/09/2023 12:30;1;32;32;26.56;38.00
26/09/2023 13:00;1;35;35;25.83;38.00
26/09/2023 13:30;1;23;23;26.30;40.00
26/09/2023 14:00;1;16;16;27.12;42.00
26/09/2023 14:30;1;36;36;26.22;40.00
26/09/2023 15:00;1;35;35;25.17;43.00
26/09/2023 15:30;1;33;33;25.36;46.00
26/09/2023 16:00;1;33;33;24.48;43.00
26/09/2023 16:30;1;34;34;24.29;35.00
26/09/2023 17:00;1;25;25;24.68;56.00
26/09/2023 17:30;1;27;27;26.22;47.00
26/09/2023 18:00;1;17;17;23.24;41.00
26/09/2023 18:30;1;28;28;24.21;40.00
26/09/2023 19:00;1;29;29;25.24;44.00
26/09/2023 19:30;1;27;27;25.37;45.00
26/09/2023 20:00;1;23;23;26.57;42.00
26/09/2023 20:30;1;16;16;26.31;38.00
26/09/2023 21:00;1;12;12;26.17;34.00
26/09/2023 21:30;1;4;4;32.25;41.00
26/09/2023 22:00;1;5;5;26.00;37.00
26/09/2023 22:30;1;8;8;27.00;35.00
26/09/2023 23:00;1;3;3;19.67;24.00
26/09/2023 23:30;1;1;1;44.00;44.00
27/09/2023 00:00;1;2;2;25.50;31.00
27/09/2023 00:30;1;3;3;37.33;43.00
27/09/2023 02:00;1;2;2;26.50;37.00
27/09/2023 02:30;1;1;1;35.00;35.00
27/09/2023 03:00;1;1;1;17.00;17.00
27/09/2023 03:30;1;4;4;28.50;32.00
27/09/2023 04:00;1;1;1;21.00;21.00
27/09/2023 04:30;1;3;3;26.00;28.00
27/09/2023 05:00;1;13;13;28.23;49.00
27/09/2023 05:30;1;19;19;27.11;38.00
27/09/2023 06:00;1;10;10;29.20;39.00
27/09/2023 06:30;1;27;27;26.37;41.00
27/09/2023 07:00;1;35;35;27.14;42.00
27/09/2023 07:30;1;48;48;23.48;36.00
27/09/2023 08:00;1;45;45;25.31;42.00
27/09/2023 08:30;1;28;28;26.39;41.00
27/09/2023 09:00;1;19;19;24.79;50.00
27/09/2023 09:30;1;24;24;23.62;43.00
27/09/2023 10:00;1;21;21;22.90;34.00
27/09/2023 10:30;1;18;18;23.22;35.00
27/09/2023 11:00;1;22;22;24.82;36.00
27/09/2023 11:30;1;31;31;25.00;37.00
27/09/2023 12:00;1;32;32;25.22;41.00
27/09/2023 12:30;1;29;29;25.90;40.00
27/09/2023 13:00;1;26;26;23.31;39.00
27/09/2023 13:30;1;26;26;24.96;36.00
27/09/2023 14:00;1;29;29;25.55;33.00
27/09/2023 14:30;1;32;32;24.78;42.00
27/09/2023 15:00;1;34;34;23.56;36.00
27/09/2023 15:30;1;43;43;25.58;41.00
27/09/2023 16:00;1;29;29;23.52;45.00
27/09/2023 16:30;1;38;38;24.37;40.00
27/09/2023 17:00;1;30;30;27.00;61.00
27/09/2023 17:30;1;27;27;25.81;42.00
27/09/2023 18:00;1;25;25;23.48;35.00
27/09/2023 18:30;1;20;20;22.60;39.00
27/09/2023 19:00;1;22;22;23.86;40.00
27/09/2023 19:30;1;33;33;25.64;36.00
27/09/2023 20:00;1;15;15;27.40;38.00
27/09/2023 20:30;1;12;12;28.00;42.00
27/09/2023 21:00;1;12;12;25.75;39.00
27/09/2023 21:30;1;8;8;26.62;34.00
27/09/2023 22:00;1;14;14;29.36;43.00
27/09/2023 22:30;1;9;9;30.78;50.00
27/09/2023 23:00;1;5;5;24.00;28.00
27/09/2023 23:30;1;5;5;28.00;32.00
28/09/2023 00:00;1;4;4;32.00;40.00
28/09/2023 00:30;1;2;2;19.50;23.00
28/09/2023 02:30;1;1;1;25.00;25.00
28/09/2023 03:00;1;1;1;17.00;17.00
28/09/2023 03:30;1;3;3;30.67;32.00
28/09/2023 04:00;1;1;1;22.00;22.00
28/09/2023 04:30;1;1;1;30.00;30.00
28/09/2023 05:00;1;12;12;29.33;39.00
28/09/2023 05:30;1;19;19;27.37;44.00
28/09/2023 06:00;1;24;24;25.17;38.00
28/09/2023 06:30;1;18;18;26.72;34.00
28/09/2023 07:00;1;43;43;25.88;43.00
28/09/2023 07:30;1;49;49;24.29;34.00
28/09/2023 08:00;1;47;47;24.89;42.00
28/09/2023 08:30;1;26;26;22.77;36.00
28/09/2023 09:00;1;28;28;26.57;44.00
28/09/2023 09:30;1;23;23;24.78;36.00
28/09/2023 10:00;1;32;32;23.78;31.00
28/09/2023 10:30;1;23;23;26.00;37.00
28/09/2023 11:00;1;26;26;26.31;42.00
28/09/2023 11:30;1;27;27;24.04;32.00
28/09/2023 12:00;1;24;24;24.08;42.00
28/09/2023 12:30;1;31;31;23.81;35.00
28/09/2023 13:00;1;28;28;24.86;42.00
28/09/2023 13:30;1;31;31;23.90;41.00
28/09/2023 14:00;1;31;31;26.06;42.00
28/09/2023 14:30;1;39;39;24.87;41.00
28/09/2023 15:00;1;18;18;23.83;36.00
28/09/2023 15:30;1;31;31;23.97;41.00
28/09/2023 16:00;1;38;38;24.11;36.00
28/09/2023 16:30;1;38;38;24.03;42.00
28/09/2023 17:00;1;34;34;24.59;33.00
28/09/2023 17:30;1;29;29;26.62;36.00
28/09/2023 18:00;1;42;42;24.64;35.00
28/09/2023 18:30;1;38;38;24.39;40.00
28/09/2023 19:00;1;16;16;25.25;36.00
28/09/2023 19:30;1;15;15;26.20;43.00
28/09/2023 20:00;1;13;13;25.46;63.00
28/09/2023 20:30;1;18;18;25.44;47.00
28/09/2023 21:00;1;10;10;28.60;42.00
28/09/2023 21:30;1;15;15;27.67;55.00
28/09/2023 22:00;1;9;9;28.67;36.00
28/09/2023 22:30;1;6;6;35.33;47.00
28/09/2023 23:00;1;4;4;26.00;36.00
29/09/2023 00:00;1;4;4;20.25;25.00
29/09/2023 01:00;1;1;1;19.00;19.00
29/09/2023 01:30;1;1;1;39.00;39.00
29/09/2023 02:00;1;1;1;43.00;43.00
29/09/2023 03:00;1;1;1;42.00;42.00
29/09/2023 03:30;1;1;1;31.00;31.00
29/09/2023 04:00;1;2;2;25.50;27.00
29/09/2023 04:30;1;3;3;25.33;28.00
29/09/2023 05:00;1;8;8;26.00;32.00
29/09/2023 05:30;1;18;18;29.50;41.00
29/09/2023 06:00;1;17;17;30.29;53.00
29/09/2023 06:30;1;25;25;25.04;37.00
29/09/2023 07:00;1;33;33;23.42;37.00
29/09/2023 07:30;1;46;46;23.41;44.00
29/09/2023 08:00;1;36;36;26.19;49.00
29/09/2023 08:30;1;36;36;26.11;46.00
29/09/2023 09:00;1;24;24;23.88;47.00
29/09/2023 09:30;1;23;23;25.22;43.00
29/09/2023 10:00;1;26;26;23.69;42.00
29/09/2023 10:30;1;25;25;24.48;37.00
29/09/2023 11:00;1;20;20;24.00;34.00
29/09/2023 11:30;1;42;42;25.98;48.00
29/09/2023 12:00;1;32;32;26.84;42.00
29/09/2023 12:30;1;38;38;24.13;39.00
29/09/2023 13:00;1;51;51;23.55;36.00
29/09/2023 13:30;1;26;26;24.19;35.00
29/09/2023 14:00;1;32;32;26.88;43.00
29/09/2023 14:30;1;35;35;25.29;44.00
29/09/2023 15:00;1;21;21;23.62;32.00
29/09/2023 15:30;1;39;39;26.15;40.00
29/09/2023 16:00;1;34;34;24.47;41.00
29/09/2023 16:30;1;45;45;24.47;42.00
29/09/2023 17:00;1;22;22;24.82;33.00
29/09/2023 17:30;1;27;27;23.26;40.00
29/09/2023 18:00;1;29;29;24.72;48.00
29/09/2023 18:30;1;28;28;24.00;37.00
29/09/2023 19:00;1;33;33;23.18;36.00
29/09/2023 19:30;1;27;27;26.22;43.00
29/09/2023 20:00;1;23;23;25.65;39.00
29/09/2023 20:30;1;16;16;26.56;42.00
29/09/2023 21:00;1;10;10;24.60;33.00
29/09/2023 21:30;1;10;10;32.00;49.00
29/09/2023 22:00;1;8;8;24.12;44.00
29/09/2023 22:30;1;14;14;31.71;59.00
29/09/2023 23:00;1;6;6;28.50;40.00
29/09/2023 23:30;1;10;10;32.10;54.00
30/09/2023 00:00;1;4;4;28.25;41.00
30/09/2023 00:30;1;4;4;33.75;47.00
30/09/2023 01:00;1;6;6;32.67;54.00
30/09/2023 01:30;1;4;4;34.00;54.00
30/09/2023 02:00;1;1;1;17.00;17.00
30/09/2023 02:30;1;4;4;32.75;37.00
30/09/2023 03:00;1;4;4;29.50;41.00
30/09/2023 03:30;1;4;4;32.75;42.00
30/09/2023 04:00;1;3;3;40.00;52.00
30/09/2023 04:30;1;6;6;26.83;34.00
30/09/2023 05:00;1;11;11;30.73;48.00
30/09/2023 05:30;1;8;8;23.75;45.00
30/09/2023 06:00;1;2;2;30.50;40.00
30/09/2023 06:30;1;14;14;25.86;37.00
30/09/2023 07:00;1;7;7;27.86;36.00
30/09/2023 07:30;1;22;22;26.45;52.00
30/09/2023 08:00;1;10;10;30.30;50.00
30/09/2023 08:30;1;18;18;23.61;28.00
30/09/2023 09:00;1;24;24;26.42;36.00
30/09/2023 09:30;1;28;28;25.75;42.00
30/09/2023 10:00;1;26;26;25.54;40.00
30/09/2023 10:30;1;21;21;27.57;45.00
30/09/2023 11:00;1;25;25;26.28;46.00
30/09/2023 11:30;1;25;25;26.60;42.00
30/09/2023 12:00;1;38;38;26.13;40.00
30/09/2023 12:30;1;27;27;25.48;40.00
30/09/2023 13:00;1;29;29;26.00;39.00
30/09/2023 13:30;1;20;20;21.50;43.00
30/09/2023 14:00;1;26;26;25.19;36.00
30/09/2023 14:30;1;33;33;27.12;57.00
30/09/2023 15:00;1;39;39;28.28;42.00
30/09/2023 15:30;1;42;42;24.90;37.00
30/09/2023 16:00;1;17;17;25.35;34.00
30/09/2023 16:30;1;28;28;24.82;45.00
30/09/2023 17:00;1;36;36;24.61;45.00
30/09/2023 17:30;1;23;23;24.78;37.00
30/09/2023 18:00;1;22;22;25.77;38.00
30/09/2023 18:30;1;19;19;25.74;35.00
30/09/2023 19:00;1;32;32;25.97;40.00
30/09/2023 19:30;1;30;30;25.77;39.00
30/09/2023 20:00;1;14;14;28.00;42.00
30/09/2023 20:30;1;11;11;27.55;50.00
30/09/2023 21:00;1;14;14;31.14;44.00
30/09/2023 21:30;1;28;28;26.57;48.00
30/09/2023 22:00;1;17;17;29.76;43.00
30/09/2023 22:30;1;8;8;26.25;32.00
30/09/2023 23:00;1;16;16;30.31;45.00
30/09/2023 23:30;1;7;7;26.14;37.00
01/10/2023 00:00;1;9;9;29.00;49.00
01/10/2023 00:30;1;6;6;27.67;48.00
01/10/2023 01:00;1;4;4;37.50;47.00
01/10/2023 01:30;1;7;7;27.29;31.00
01/10/2023 02:30;1;2;2;37.00;39.00
01/10/2023 03:00;1;1;1;21.00;21.00
01/10/2023 03:30;1;2;2;57.00;62.00
01/10/2023 04:00;1;6;6;28.33;36.00
01/10/2023 04:30;1;2;2;17.50;18.00
01/10/2023 05:00;1;11;11;32.82;54.00
01/10/2023 05:30;1;5;5;36.60;57.00
01/10/2023 06:00;1;4;4;30.25;43.00
01/10/2023 06:30;1;1;1;25.00;25.00
01/10/2023 07:00;1;2;2;16.50;17.00
01/10/2023 07:30;1;9;9;24.44;32.00
01/10/2023 08:00;1;10;10;25.80;39.00
01/10/2023 08:30;1;8;8;26.50;31.00
01/10/2023 09:00;1;20;20;27.80;43.00
01/10/2023 09:30;1;16;16;29.56;57.00
01/10/2023 10:00;1;21;21;28.14;50.00
01/10/2023 10:30;1;11;11;26.45;31.00
01/10/2023 11:00;1;14;14;24.50;40.00
01/10/2023 11:30;1;19;19;23.58;31.00
01/10/2023 12:00;1;29;29;24.41;52.00
01/10/2023 12:30;1;28;28;26.21;39.00
01/10/2023 13:00;1;35;35;29.26;40.00
01/10/2023 13:30;1;20;20;23.10;37.00
01/10/2023 14:00;1;24;24;23.88;38.00
01/10/2023 14:30;1;28;28;24.86;38.00
01/10/2023 15:00;1;32;32;24.72;38.00
01/10/2023 15:30;1;22;22;24.41;40.00
01/10/2023 16:00;1;25;25;23.72;42.00
01/10/2023 16:30;1;22;22;27.45;43.00
01/10/2023 17:00;1;25;25;27.12;59.00
01/10/2023 17:30;1;25;25;23.76;36.00
01/10/2023 18:00;1;23;23;23.43;36.00
01/10/2023 18:30;1;24;24;24.46;37.00
01/10/2023 19:00;1;22;22;23.91;39.00
01/10/2023 19:30;1;18;18;25.72;36.00
01/10/2023 20:00;1;19;19;22.58;34.00
01/10/2023 20:30;1;21;21;26.29;38.00
01/10/2023 21:00;1;11;11;33.82;72.00
01/10/2023 21:30;1;4;4;24.00;27.00
01/10/2023 22:00;1;10;10;25.10;34.00
01/10/2023 22:30;1;6;6;29.67;43.00
01/10/2023 23:00;1;6;6;24.33;29.00
01/10/2023 23:30;1;3;3;23.33;29.00
02/10/2023 00:00;1;7;7;27.14;37.00
02/10/2023 01:00;1;2;2;18.00;20.00
02/10/2023 01:30;1;1;1;27.00;27.00
02/10/2023 02:00;1;2;2;34.00;36.00
02/10/2023 03:00;1;3;3;27.33;38.00
02/10/2023 03:30;1;2;2;27.00;27.00
02/10/2023 04:00;1;5;5;26.60;31.00
02/10/2023 04:30;1;5;5;25.40;29.00
02/10/2023 05:00;1;5;5;31.60;39.00
02/10/2023 05:30;1;17;17;27.53;43.00
02/10/2023 06:00;1;7;7;35.00;55.00
02/10/2023 06:30;1;19;19;29.68;64.00
02/10/2023 07:00;1;28;28;25.43;41.00
02/10/2023 07:30;1;47;47;25.11;37.00
02/10/2023 08:00;1;35;35;22.49;32.00
02/10/2023 08:30;1;27;27;24.93;34.00
02/10/2023 09:00;1;24;24;26.71;43.00
02/10/2023 09:30;1;19;19;24.42;38.00
02/10/2023 10:00;1;21;21;24.29;34.00
02/10/2023 10:30;1;29;29;26.03;40.00
02/10/2023 11:00;1;23;23;27.09;41.00
02/10/2023 11:30;1;27;27;24.96;40.00
02/10/2023 12:00;1;28;28;25.64;37.00
02/10/2023 12:30;1;29;29;25.83;39.00
02/10/2023 13:00;1;29;29;24.72;40.00
02/10/2023 13:30;1;35;35;25.06;44.00
02/10/2023 14:00;1;20;20;24.75;45.00
02/10/2023 14:30;1;34;34;26.44;40.00
02/10/2023 15:00;1;44;44;25.82;47.00
02/10/2023 15:30;1;34;34;26.59;44.00
02/10/2023 16:00;1;31;31;24.45;37.00
02/10/2023 16:30;1;40;40;24.68;36.00
02/10/2023 17:00;1;20;20;24.15;35.00
02/10/2023 17:30;1;46;46;25.39;41.00
02/10/2023 18:00;1;31;31;22.90;35.00
02/10/2023 18:30;1;34;34;25.50;45.00
02/10/2023 19:00;1;36;36;25.39;40.00
02/10/2023 19:30;1;26;26;28.27;46.00
02/10/2023 20:00;1;18;18;25.67;38.00
02/10/2023 20:30;1;18;18;27.78;44.00
02/10/2023 21:00;1;14;14;28.14;42.00
02/10/2023 21:30;1;10;10;27.20;34.00
02/10/2023 22:00;1;8;8;26.12;33.00
02/10/2023 22:30;1;7;7;25.86;58.00
02/10/2023 23:00;1;9;9;28.22;45.00
02/10/2023 23:30;1;4;4;25.25;31.00
03/10/2023 00:00;1;2;2;24.50;28.00
03/10/2023 00:30;1;5;5;25.80;35.00
03/10/2023 01:00;1;2;2;26.50;29.00
03/10/2023 02:00;1;4;4;28.75;33.00
03/10/2023 02:30;1;3;3;18.67;21.00
03/10/2023 03:00;1;2;2;39.00;42.00
03/10/2023 03:30;1;3;3;35.67;41.00
03/10/2023 04:00;1;4;4;36.25;55.00
03/10/2023 04:30;1;3;3;35.00;56.00
03/10/2023 05:00;1;4;4;26.00;42.00
03/10/2023 05:30;1;5;5;27.00;47.00
03/10/2023 06:00;1;7;7;28.00;39.00
03/10/2023 06:30;1;10;10;31.20;44.00
03/10/2023 07:00;1;5;5;29.60;41.00
03/10/2023 07:30;1;9;9;27.44;41.00
03/10/2023 08:00;1;9;9;26.89;37.00
03/10/2023 08:30;1;11;11;27.00;38.00
03/10/2023 09:00;1;11;11;24.55;38.00
03/10/2023 09:30;1;7;7;22.86;33.00
03/10/2023 10:00;1;17;17;27.71;41.00
03/10/2023 10:30;1;18;18;24.11;35.00
03/10/2023 11:00;1;30;30;27.83;42.00
03/10/2023 11:30;1;25;25;27.20;39.00
03/10/2023 12:00;1;24;24;27.38;39.00
03/10/2023 12:30;1;18;18;25.00;41.00
03/10/2023 13:00;1;25;25;25.56;35.00
03/10/2023 13:30;1;30;30;24.57;34.00
03/10/2023 14:00;1;24;24;26.08;36.00
03/10/2023 14:30;1;22;22;25.27;35.00
03/10/2023 15:00;1;19;19;23.63;33.00
03/10/2023 15:30;1;20;20;26.20;36.00
03/10/2023 16:00;1;21;21;26.43;41.00
03/10/2023 16:30;1;29;29;25.07;39.00
03/10/2023 17:00;1;23;23;28.04;48.00
03/10/2023 17:30;1;27;27;24.48;35.00
03/10/2023 18:00;1;31;31;25.94;40.00
03/10/2023 18:30;1;16;16;27.12;45.00
03/10/2023 19:00;1;28;28;25.82;37.00
03/10/2023 19:30;1;15;15;22.73;33.00
03/10/2023 20:00;1;14;14;30.64;66.00
03/10/2023 20:30;1;22;22;28.00;46.00
03/10/2023 21:00;1;9;9;28.56;50.00
03/10/2023 21:30;1;14;14;29.50;40.00
03/10/2023 22:00;1;5;5;20.40;23.00
03/10/2023 22:30;1;2;2;29.00;30.00
03/10/2023 23:00;1;4;4;24.50;26.00
03/10/2023 23:30;1;2;2;29.00;39.00
04/10/2023 00:00;1;3;3;35.00;43.00
04/10/2023 00:30;1;1;1;22.00;22.00
04/10/2023 01:00;1;1;1;39.00;39.00
04/10/2023 01:30;1;2;2;31.50;32.00
04/10/2023 03:00;1;1;1;18.00;18.00
04/10/2023 03:30;1;4;4;30.00;32.00
04/10/2023 04:00;1;2;2;32.00;38.00
04/10/2023 04:30;1;4;4;25.25;37.00
04/10/2023 05:00;1;11;11;25.18;37.00
04/10/2023 05:30;1;12;12;29.58;55.00
04/10/2023 06:00;1;16;16;26.75;43.00
04/10/2023 06:30;1;32;32;26.00;41.00
04/10/2023 07:00;1;36;36;24.53;40.00
04/10/2023 07:30;1;54;54;23.33;38.00
04/10/2023 08:00;1;37;37;25.97;41.00
04/10/2023 08:30;1;35;35;25.86;43.00
04/10/2023 09:00;1;25;25;27.80;47.00
04/10/2023 09:30;1;15;15;25.13;30.00
04/10/2023 10:00;1;23;23;24.26;41.00
04/10/2023 10:30;1;33;33;25.67;46.00
04/10/2023 11:00;1;24;24;25.54;39.00
04/10/2023 11:30;1;40;40;26.00;39.00
04/10/2023 12:00;1;26;26;25.08;36.00
04/10/2023 12:30;1;38;38;26.79;43.00
04/10/2023 13:00;1;33;33;23.33;33.00
04/10/2023 13:30;1;28;28;24.14;35.00
04/10/2023 14:00;1;26;26;26.00;43.00
04/10/2023 14:30;1;40;40;23.32;40.00
04/10/2023 15:00;1;30;30;24.73;39.00
04/10/2023 15:30;1;27;27;27.11;40.00
04/10/2023 16:00;1;32;32;25.50;42.00
04/10/2023 16:30;1;39;39;25.51;42.00
04/10/2023 17:00;1;37;37;25.35;45.00
04/10/2023 17:30;1;37;37;25.76;39.00
04/10/2023 18:00;1;28;28;25.07;45.00
04/10/2023 18:30;1;27;27;22.44;35.00
04/10/2023 19:00;1;22;22;26.05;38.00
04/10/2023 19:30;1;23;23;26.96;51.00
04/10/2023 20:00;1;23;23;25.87;39.00
04/10/2023 20:30;1;9;9;21.89;27.00
04/10/2023 21:00;1;8;8;32.75;54.00
04/10/2023 21:30;1;13;13;25.08;43.00
04/10/2023 22:00;1;9;9;28.89;52.00
04/10/2023 22:30;1;6;6;33.67;41.00
04/10/2023 23:00;1;6;6;38.83;49.00
04/10/2023 23:30;1;5;5;30.60;43.00
05/10/2023 00:00;1;1;1;16.00;16.00
05/10/2023 00:30;1;1;1;51.00;51.00
05/10/2023 01:00;1;1;1;43.00;43.00
05/10/2023 01:30;1;4;4;30.25;43.00
05/10/2023 02:00;1;1;1;34.00;34.00
05/10/2023 02:30;1;3;3;17.67;19.00
05/10/2023 03:00;1;3;3;31.00;39.00
05/10/2023 03:30;1;2;2;31.50;35.00
05/10/2023 04:00;1;3;3;26.33;29.00
05/10/2023 04:30;1;2;2;24.50;33.00
05/10/2023 05:00;1;12;12;29.17;35.00
05/10/2023 05:30;1;20;20;28.40;54.00
05/10/2023 06:00;1;23;23;27.04;41.00
05/10/2023 06:30;1;32;32;26.78;39.00
05/10/2023 07:00;1;38;38;25.18;43.00
05/10/2023 07:30;1;62;62;24.73;41.00
05/10/2023 08:00;1;37;37;24.51;44.00
05/10/2023 08:30;1;37;37;27.19;39.00
05/10/2023 09:00;1;25;25;25.88;40.00
05/10/2023 09:30;1;25;25;26.40;50.00
05/10/2023 10:00;1;22;22;24.91;36.00
05/10/2023 10:30;1;29;29;23.90;46.00
05/10/2023 11:00;1;25;25;23.64;35.00
05/10/2023 11:30;1;26;26;24.23;39.00
05/10/2023 12:00;1;22;22;22.73;32.00
05/10/2023 12:30;1;27;27;23.70;39.00
05/10/2023 13:00;1;31;31;24.52;36.00
05/10/2023 13:30;1;28;28;24.93;42.00
05/10/2023 14:00;1;27;27;24.59;41.00
05/10/2023 14:30;1;29;29;25.00;33.00
05/10/2023 15:00;1;41;41;26.63;39.00
05/10/2023 15:30;1;40;40;26.68;38.00
05/10/2023 16:00;1;32;32;24.28;44.00
05/10/2023 16:30;1;43;43;25.49;44.00
05/10/2023 17:00;1;22;22;24.95;36.00
05/10/2023 17:30;1;34;34;27.09;40.00
05/10/2023 18:00;1;21;21;24.52;42.00
05/10/2023 18:30;1;31;31;22.97;37.00
05/10/2023 19:00;1;23;23;27.39;45.00
05/10/2023 19:30;1;27;27;25.96;41.00
05/10/2023 20:00;1;17;17;26.82;42.00
05/10/2023 20:30;1;10;10;27.70;38.00
05/10/2023 21:00;1;23;23;25.78;46.00
05/10/2023 21:30;1;6;6;29.83;43.00
05/10/2023 22:00;1;7;7;28.29;35.00
05/10/2023 22:30;1;6;6;28.33;37.00
05/10/2023 23:00;1;7;7;28.57;43.00
05/10/2023 23:30;1;1;1;24.00;24.00
06/10/2023 00:00;1;2;2;27.00;35.00
06/10/2023 00:30;1;1;1;27.00;27.00
06/10/2023 01:30;1;2;2;34.50;36.00
06/10/2023 02:00;1;2;2;43.50;44.00
06/10/2023 03:00;1;1;1;18.00;18.00
06/10/2023 03:30;1;5;5;30.00;31.00
06/10/2023 04:00;1;4;4;24.75;28.00
06/10/2023 04:30;1;5;5;25.00;27.00
06/10/2023 05:00;1;10;10;25.30;35.00
06/10/2023 05:30;1;31;31;30.90;55.00
06/10/2023 06:00;1;27;27;26.22;37.00
06/10/2023 06:30;1;29;29;28.76;42.00
06/10/2023 07:00;1;45;45;24.84;39.00
06/10/2023 07:30;1;57;57;24.37;47.00
06/10/2023 08:00;1;47;47;26.32;38.00
06/10/2023 08:30;1;35;35;25.37;39.00
06/10/2023 09:00;1;27;27;26.22;43.00
06/10/2023 09:30;1;18;18;24.50;36.00
06/10/2023 10:00;1;16;16;26.25;35.00
06/10/2023 10:30;1;32;32;25.28;38.00
06/10/2023 11:00;1;30;30;25.43;35.00
06/10/2023 11:30;1;31;31;27.26;51.00
06/10/2023 12:00;1;31;31;26.00;37.00
06/10/2023 12:30;1;30;30;24.87;36.00
06/10/2023 13:00;1;31;31;25.71;38.00
06/10/2023 13:30;1;33;33;25.09;39.00
06/10/2023 14:00;1;36;36;25.42;36.00
06/10/2023 14:30;1;31;31;23.84;37.00
06/10/2023 15:00;1;32;32;25.78;47.00
06/10/2023 15:30;1;30;30;26.03;38.00
06/10/2023 16:00;1;27;27;25.63;40.00
06/10/2023 16:30;1;44;44;24.93;55.00
06/10/2023 17:00;1;30;30;24.20;38.00
06/10/2023 17:30;1;43;43;25.37;39.00
06/10/2023 18:00;1;31;31;25.90;45.00
06/10/2023 18:30;1;17;17;24.76;36.00
06/10/2023 19:00;1;23;23;25.35;39.00
06/10/2023 19:30;1;18;18;25.61;44.00
06/10/2023 20:00;1;22;22;25.50;42.00
06/10/2023 20:30;1;15;15;27.27;40.00
06/10/2023 21:00;1;22;22;29.86;51.00
06/10/2023 21:30;1;9;9;23.22;29.00
06/10/2023 22:00;1;10;10;22.80;33.00
06/10/2023 22:30;1;9;9;27.11;42.00
06/10/2023 23:00;1;6;6;24.50;27.00
06/10/2023 23:30;1;3;3;26.00;35.00
07/10/2023 00:00;1;3;3;54.67;61.00
07/10/2023 00:30;1;8;8;24.88;30.00
07/10/2023 01:00;1;1;1;21.00;21.00
07/10/2023 01:30;1;3;3;29.00;39.00
07/10/2023 02:30;1;2;2;36.50;45.00
07/10/2023 03:00;1;6;6;30.67;46.00
07/10/2023 03:30;1;2;2;35.00;37.00
07/10/2023 04:00;1;4;4;31.75;43.00
07/10/2023 04:30;1;5;5;24.60;34.00
07/10/2023 05:00;1;8;8;26.12;33.00
07/10/2023 05:30;1;11;11;26.45;37.00
07/10/2023 06:00;1;4;4;25.00;30.00
07/10/2023 06:30;1;19;19;24.58;34.00
07/10/2023 07:00;1;19;19;24.74;40.00
07/10/2023 07:30;1;8;8;26.00;38.00
07/10/2023 08:00;1;15;15;26.40;42.00
07/10/2023 08:30;1;21;21;24.86;36.00
07/10/2023 09:00;1;26;26;27.04;42.00
07/10/2023 09:30;1;29;29;26.34;43.00
07/10/2023 10:00;1;25;25;26.60;41.00
07/10/2023 10:30;1;34;34;26.38;43.00
07/10/2023 11:00;1;38;38;24.79;35.00
07/10/2023 11:30;1;16;16;23.88;38.00
07/10/2023 12:00;1;29;29;27.79;47.00
07/10/2023 12:30;1;26;26;25.08;39.00
07/10/2023 13:00;1;18;18;27.39;63.00
07/10/2023 13:30;1;26;26;26.69;39.00
07/10/2023 14:00;1;14;14;23.79;30.00
07/10/2023 14:30;1;31;31;26.81;39.00
07/10/2023 15:00;1;24;24;25.88;51.00
07/10/2023 15:30;1;24;24;27.12;38.00
07/10/2023 16:00;1;32;32;26.41;40.00
07/10/2023 16:30;1;31;31;25.00;37.00
07/10/2023 17:00;1;28;28;27.54;47.00
07/10/2023 17:30;1;29;29;28.28;40.00
07/10/2023 18:00;1;21;21;25.19;37.00
07/10/2023 18:30;1;28;28;26.71;47.00
07/10/2023 19:00;1;23;23;24.78;32.00
07/10/2023 19:30;1;20;20;27.25;42.00
07/10/2023 20:00;1;18;18;25.11;39.00
07/10/2023 20:30;1;19;19;25.89;39.00
07/10/2023 21:00;1;10;10;27.90;46.00
07/10/2023 21:30;1;4;4;25.00;27.00
07/10/2023 22:00;1;13;13;33.31;65.00
07/10/2023 22:30;1;8;8;26.75;39.00
07/10/2023 23:00;1;2;2;29.50;37.00
07/10/2023 23:30;1;5;5;32.20;50.00
08/10/2023 00:00;1;5;5;24.40;32.00
08/10/2023 00:30;1;3;3;30.33;39.00
08/10/2023 01:00;1;4;4;33.75;54.00
08/10/2023 01:30;1;1;1;43.00;43.00
08/10/2023 02:00;1;1;1;22.00;22.00
08/10/2023 02:30;1;3;3;26.67;43.00
08/10/2023 03:00;1;4;4;38.00;53.00
08/10/2023 03:30;1;3;3;31.00;42.00
08/10/2023 04:00;1;1;1;29.00;29.00
08/10/2023 04:30;1;4;4;25.25;28.00
08/10/2023 05:00;1;7;7;29.29;42.00
08/10/2023 05:30;1;3;3;35.67;46.00
08/10/2023 06:00;1;2;2;26.50;32.00
08/10/2023 07:00;1;6;6;31.00;52.00
08/10/2023 07:30;1;6;6;25.33;31.00
08/10/2023 08:00;1;4;4;27.25;38.00
08/10/2023 08:30;1;9;9;28.89;43.00
08/10/2023 09:00;1;9;9;24.56;37.00
08/10/2023 09:30;1;13;13;30.38;44.00
08/10/2023 10:00;1;15;15;27.67;45.00
08/10/2023 10:30;1;18;18;27.44;38.00
08/10/2023 11:00;1;25;25;27.20;41.00
08/10/2023 11:30;1;16;16;25.88;43.00
08/10/2023 12:00;1;24;24;25.96;38.00
08/10/2023 12:30;1;26;26;28.00;40.00
08/10/2023 13:00;1;19;19;26.68;38.00
08/10/2023 13:30;1;16;16;26.38;39.00
08/10/2023 14:00;1;22;22;26.05;41.00
08/10/2023 14:30;1;28;28;26.43;44.00
08/10/2023 15:00;1;27;27;24.15;39.00
08/10/2023 15:30;1;18;18;26.78;36.00
08/10/2023 16:00;1;24;24;28.67;48.00
08/10/2023 16:30;1;41;41;24.34;39.00
08/10/2023 17:00;1;37;37;23.78;37.00
08/10/2023 17:30;1;28;28;26.07;50.00
08/10/2023 18:00;1;22;22;25.64;40.00
08/10/2023 18:30;1;12;12;26.00;38.00
08/10/2023 19:00;1;22;22;24.14;59.00
08/10/2023 19:30;1;26;26;26.46;43.00
08/10/2023 20:00;1;16;16;28.44;53.00
08/10/2023 20:30;1;13;13;27.31;49.00
08/10/2023 21:00;1;13;13;23.00;29.00
08/10/2023 21:30;1;5;5;24.00;31.00
08/10/2023 22:00;1;8;8;31.88;43.00
08/10/2023 22:30;1;3;3;25.67;29.00
08/10/2023 23:00;1;3;3;26.00;31.00
08/10/2023 23:30;1;4;4;30.50;40.00
09/10/2023 00:00;1;2;2;33.50;41.00
09/10/2023 00:30;1;2;2;19.50;22.00
09/10/2023 01:30;1;2;2;63.50;92.00
09/10/2023 02:00;1;1;1;42.00;42.00
09/10/2023 03:00;1;2;2;27.50;38.00
09/10/2023 03:30;1;4;4;25.00;32.00
09/10/2023 04:00;1;5;5;25.60;30.00
09/10/2023 04:30;1;4;4;30.00;38.00
09/10/2023 05:00;1;7;7;27.57;38.00
09/10/2023 05:30;1;18;18;29.44;42.00
09/10/2023 06:00;1;17;17;27.65;39.00
09/10/2023 06:30;1;33;33;28.21;50.00
09/10/2023 07:00;1;37;37;27.43;45.00
09/10/2023 07:30;1;55;55;25.89;46.00
09/10/2023 08:00;1;43;43;24.40;41.00
09/10/2023 08:30;1;24;24;28.96;75.00
09/10/2023 09:00;1;36;36;26.56;39.00
09/10/2023 09:30;1;17;17;26.35;37.00
09/10/2023 10:00;1;36;36;26.69;40.00
09/10/2023 10:30;1;25;25;26.72;41.00
09/10/2023 11:00;1;26;26;23.58;38.00
09/10/2023 11:30;1;25;25;25.92;38.00
09/10/2023 12:00;1;25;25;26.28;49.00
09/10/2023 12:30;1;30;30;23.33;32.00
09/10/2023 13:00;1;32;32;24.78;43.00
09/10/2023 13:30;1;30;30;25.37;36.00
09/10/2023 14:00;1;26;26;24.46;43.00
09/10/2023 14:30;1;18;18;25.72;42.00
09/10/2023 15:00;1;29;29;24.31;36.00
09/10/2023 15:30;1;25;25;24.92;43.00
09/10/2023 16:00;1;38;38;23.87;43.00
09/10/2023 16:30;1;41;41;25.68;39.00
09/10/2023 17:00;1;29;29;24.97;37.00
09/10/2023 17:30;1;36;36;26.42;37.00
09/10/2023 18:00;1;34;34;24.56;41.00
09/10/2023 18:30;1;33;33;26.85;44.00
09/10/2023 19:00;1;28;28;24.43;35.00
09/10/2023 19:30;1;29;29;27.41;41.00
09/10/2023 20:00;1;19;19;27.00;38.00
09/10/2023 20:30;1;13;13;25.08;31.00
09/10/2023 21:00;1;10;10;27.90;35.00
09/10/2023 21:30;1;10;10;28.70;53.00
09/10/2023 22:00;1;7;7;22.43;30.00
09/10/2023 22:30;1;5;5;28.20;33.00
09/10/2023 23:00;1;7;7;30.43;41.00
09/10/2023 23:30;1;4;4;29.50;42.00
10/10/2023 00:00;1;1;1;18.00;18.00
10/10/2023 01:30;1;2;2;47.50;56.00
10/10/2023 02:00;1;1;1;32.00;32.00
10/10/2023 02:30;1;1;1;44.00;44.00
10/10/2023 03:00;1;2;2;29.50;42.00
10/10/2023 03:30;1;3;3;30.67;35.00
10/10/2023 04:00;1;1;1;25.00;25.00
10/10/2023 04:30;1;1;1;21.00;21.00